EHI
0 0 0 0 0 0 0 0 0 0 0 0 0 0 0 0 0 0 0 0 0 0 0 0 0 0 0 0 0 0 0 0 0 0 0 0 0 0 0 0 0 0 0
0 0 0 0 0 0 0 0 0 0 0 0 0 0 0 0 0 0 0 0 0 0 0 0 0 0 0 0 0 0 0 0 0 0 0 0 0 0 0 0 0 0 0
0 0 0 0 0 0 0 0 0 0 0 0 0 0 0 0 0 0 0 0 0 0 0 0 0 0 0 0 0 0 0 0 0 0 0 0 0 0 0 0 0 0 0
0 0 0 0 0 0 0 0 0 0 0 0 0 0 0 0 0 0 0 0 0 0 0 0 0 0 0 0 0 0 0 0 0 0 0 0 0 0 0 0 0 0 0
0 0 0 0 0 0 0 0 0 0 0 0 0 0 0 0 0 0 0 0 0 0 0 0 0 0 0 0 0 0 0 0 0 0 0 0 0 0 0 0 0 0 0
0 0 0 0 0 0 0 0 0 0 0 0 0 0 0 0 0 0 0 0 0 0 0 0 0 0 0 0 0 0 0 0 0 0 0 0 0 0 0 0 0 0 0
0 0 0 0 0 0 0 0 0 0 0 0 0 0 0 0 0 0 0 0 0 0 0 0 0 0 0 0 0 0 0 0 0 0 0 0 0 0 0 0 0 0 0
0 0 0 0 0 0 0 0 0 0 0 0 0 0 0 0 0 0 0 0 0 0 0 0 0 0 0 0 0 0 0 0 0 0 0 0 0 0 0 0 0 0 0
0 0 0 0 0 0 0 0 0 0 0 0 0 0 0 0 0 0 0 0 0 0 0 0 0 0 0 0 0 0 0 0 0 0 0 0 0 0 0 0 0 0 0
0 0 0 0 0 0 0 0 0 0 0 0 0 0 0 0 0 0 0 0 0 0 0 0 0 0 0 0 0 0 0 0 0 0 0 0 0 0 0 0 0 0 0
0 0 0 0 0 0 0 0 0 0 0 0 0 0 0 0 0 0 0 0 0 0 0 0 0 0 0 0 0 0 0 0 0 0 0 0 0 0 0 0 0 0 0
0 0 0 0 0 0 0 0 0 0 0 0 0 0 0 0 0 0 0 0 0 0 0 0 0 0 0 0 0 0 0 0 0 0 0 0 0 0 0 0 0 0 0
0 0 0 0 0 0 0 0 0 0 0 0 0 0 0 0 0 0 0 0 0 0 0 0 0 0 0 0 0 0 0 0 0 0 0 0 0 0 0 0 0 0 0
0 0 0 0 0 0 0 0 0 0 0 0 0 0 0 0 0 0 0 0 0 0 0 0 0 0 0 0 0 0 0 0 0 0 0 0 0 0 0 0 0 0 0
0 0 0 0 0 0 0 0 0 0 0 0 0 0 0 0 0 0 0 0 0 0 0 0 0 0 0 0 0 0 0 0 0 0 0 0 0 0 0 0 0 0 0
0 0 0 0 0 0 0 0 0 0 0 0 0 0 0 0 0 0 0 0 0 0 0 0 0 0 0 0 0 0 0 0 0 0 0 0 0 0 0 0 0 0 0
0 0 0 0 0 0 0 0 0 0 0 0 0 0 0 0 0 0 0 0 0 0 0 0 0 0 0 0 0 0 0 0 0 0 0 0 0 0 0 0 0 0 0
0 0 0 0 0 0 0 0 0 0 0 0 0 0 0 0 0 0 0 0 0 0 0 0 0 0 0 0 0 0 0 0 0 0 0 0 0 0 0 0 0 0 0
0 0 0 0 0 0 0 0 0 0 0 0 0 0 0 0 0 0 0 0 0 0 0 0 0 0 0 0 0 0 0 0 0 0 0 0 0 0 0 0 0 0 0
0 0 0 0 0 0 0 0 0 0 0 0 0 0 0 0 0 0 0 0 0 0 0 0 0 0 0 0 0 0 0 0 0 0 0 0 0 0 0 0 0 0 0
0 0 0 0 0 0 0 0 0 0 0 0 0 0 0 0 0 0 0 0 0 0 0 0 0 0 0 0 0 0 0 0 0 0 0 0 0 0 0 0 0 0 0
0 0 0 0 0 0 0 0 0 0 0 0 0 0 0 0 0 0 0 0 0 0 0 0 0 0 0 0 0 0 0 0 0 0 0 0 0 0 0 0 0 0 0
0 0 0 0 0 0 0 0 0 0 0 0 0 0 0 0 0 0 0 0 0 0 0 0 0 0 0 0 0 0 0 0 0 0 0 0 0 0 0 0 0 0 0
0 0 0 0 0 0 0 0 0 0 0 0 0 0 0 0 0 0 0 0 0 0 0 0 0 0 0 0 0 0 0 0 0 0 0 0 0 0 0 0 0 0 0
0 0 0 0 0 0 0 0 0 0 0 0 0 0 0 0 0 0 0 0 0 0 0 0 0 0 0 0 0 0 0 0 0 0 0 0 0 0 0 0 0 0 0
0 0 0 0 0 0 0 0 0 0 0 0 0 0 0 0 0 0 0 0 0 0 0 0 0 0 0 0 0 0 0 0 0 0 0 0 0 0 0 0 0 0 0
Wind_Speed
4 4 4 5 5 5 5 6 6 6 6 6 6 7 7 7 7 7 7 7 8 7 7 8 8 7 6 5 5 5 5 5 7 6 3 3 4 5 4 4 4 5 5
4 4 4 4 4 4 5 5 5 5 5 6 6 6 7 7 7 7 7 7 8 8 8 8 8 6 7 6 5 6 6 5 6 7 4 3 5 5 4 4 3 3 3
3 3 4 4 4 5 5 5 5 5 5 5 5 6 7 6 6 7 7 7 8 8 8 8 8 7 8 6 6 6 5 4 4 5 5 3 3 2 2 2 1 1 1
4 4 4 5 5 5 5 4 4 4 4 5 5 6 6 5 6 6 6 6 7 7 8 8 8 8 8 7 6 6 5 5 4 4 4 3 2 2 1 1 1 0 1
4 5 5 5 4 4 4 4 4 4 5 4 5 5 5 4 5 6 6 6 6 6 6 7 7 8 9 7 6 5 5 5 4 4 4 3 2 2 2 1 1 0 1
4 5 5 5 5 4 4 4 4 4 5 4 5 5 5 5 6 7 6 5 5 5 5 5 6 7 8 9 9 8 8 7 6 5 4 4 4 3 2 2 2 1 1
4 5 5 5 4 5 5 5 5 5 4 5 5 4 5 5 6 6 6 4 4 4 4 4 4 5 6 5 6 6 7 9 9 6 6 5 4 4 4 3 2 2 2
4 5 5 4 5 5 4 5 5 4 4 5 5 4 5 5 6 6 4 3 2 2 3 4 4 4 4 4 3 3 3 4 5 5 5 5 4 4 5 4 3 2 1
5 6 5 5 5 5 5 5 5 4 4 4 4 4 4 5 5 4 3 2 2 2 3 3 4 3 4 4 3 3 2 2 2 3 4 3 4 4 4 4 3 3 1
6 6 6 5 4 5 5 5 4 3 4 4 4 3 4 4 5 4 3 1 2 2 2 2 3 3 4 4 3 3 3 2 3 3 3 3 2 3 3 4 4 4 2
6 6 5 5 4 4 4 4 3 3 3 3 3 3 3 4 4 4 3 1 2 2 1 1 2 3 3 3 3 3 4 3 3 3 3 2 2 2 2 2 1 2 2
5 5 5 5 4 3 3 3 2 2 2 2 2 3 2 2 3 3 3 3 2 2 2 2 1 2 3 2 2 3 4 3 3 3 2 2 2 2 2 3 3 4 3
5 5 5 5 4 3 2 2 2 1 1 1 1 2 3 2 1 2 2 2 2 1 1 2 1 1 1 2 3 3 3 3 3 3 3 2 2 2 3 3 4 5 6
5 5 4 4 4 3 2 2 1 1 1 1 1 2 2 2 2 1 1 0 0 0 0 1 1 2 2 2 2 2 2 3 4 4 3 3 3 3 3 2 3 3 4
4 4 4 3 2 2 2 2 2 2 2 2 2 2 2 2 3 3 2 1 1 1 0 1 2 1 1 1 2 2 2 3 4 4 4 4 3 3 3 2 2 2 3
4 4 3 2 2 1 1 3 3 3 5 5 4 3 2 3 4 4 3 2 2 0 1 1 1 2 2 2 2 2 3 3 4 4 4 4 3 3 3 2 2 3 3
3 4 3 2 1 1 1 1 3 5 6 5 4 4 3 2 2 2 2 2 2 2 2 2 2 2 2 2 2 3 3 3 3 4 4 4 3 3 3 3 3 3 3
3 3 3 2 1 1 1 1 1 2 3 4 4 4 5 4 3 3 3 3 3 3 2 2 2 2 2 2 2 3 3 3 3 4 4 3 3 3 3 3 3 3 3
3 2 2 1 1 1 1 1 1 1 2 2 3 4 5 4 4 5 4 3 2 2 2 2 2 2 2 2 2 3 3 3 3 3 3 3 3 3 3 3 3 4 3
2 4 3 2 1 1 1 1 1 1 2 2 2 2 3 3 3 3 3 2 2 2 2 2 2 2 2 2 3 3 3 3 3 3 3 3 3 3 3 3 3 3 3
2 2 3 2 1 1 1 1 1 1 1 2 2 3 4 2 2 2 2 2 1 1 2 2 2 2 2 2 2 3 4 3 3 3 3 3 3 3 3 3 3 3 4
2 2 2 1 1 1 1 1 1 1 2 2 2 3 4 3 2 2 2 2 1 1 2 2 2 2 2 2 2 3 4 4 4 4 4 3 3 4 4 3 4 4 4
1 2 2 2 2 2 2 2 2 2 2 2 2 2 2 2 2 2 1 1 1 2 2 2 2 2 2 2 2 2 3 3 3 4 4 4 4 4 4 4 5 5 4
2 2 2 2 2 2 2 2 2 2 2 2 2 2 2 2 2 2 2 2 2 2 2 2 2 3 3 2 2 3 3 3 3 3 5 5 4 4 4 4 4 5 5
2 2 2 1 1 2 2 2 2 2 2 2 2 2 2 2 2 2 2 2 3 3 3 3 2 3 4 3 3 4 6 6 5 4 4 5 5 5 4 4 4 4 4
2 2 2 1 1 1 1 1 1 2 2 2 2 2 2 2 2 2 2 2 2 3 3 2 3 3 3 3 5 7 7 7 7 7 5 5 6 5 5 4 5 4 5
Wind_Direction
271 276 283 283 280 273 262 257 254 256 252 249 247 249 246 241 229 225 228 228 230 236 235 225 227 224 225 221 217 221 225 221 244 261 251 244 235 243 250 246 243 240 241
267 278 282 283 285 280 275 270 260 259 256 252 251 253 252 246 232 227 229 231 231 236 236 228 229 226 225 218 216 222 224 220 228 249 253 244 243 225 234 243 249 248 241
284 285 288 286 288 285 277 274 267 262 267 263 257 258 254 246 241 235 231 232 232 237 236 228 227 223 229 221 216 221 225 226 222 231 247 246 247 227 237 251 245 255 278
298 291 286 285 282 283 281 278 271 265 269 273 268 267 261 252 249 242 236 237 236 240 236 228 228 223 225 217 218 219 218 218 217 222 237 238 238 232 199 223 268 321 291
301 296 291 293 290 287 287 283 282 277 276 272 277 280 274 262 254 251 236 235 235 238 238 231 230 231 227 221 219 212 207 210 210 218 228 226 221 205 212 202 213 274 324
299 297 301 302 303 300 292 286 285 285 283 280 276 273 274 272 275 280 261 235 230 235 239 234 233 227 228 231 230 227 216 207 209 213 222 213 219 209 202 191 179 173 253
303 306 309 311 311 305 302 298 286 281 279 280 271 270 272 272 278 283 284 245 226 230 235 235 234 228 222 213 224 231 231 227 221 212 209 211 210 202 189 195 197 192 217
309 306 307 309 305 303 301 297 289 281 276 275 266 264 266 270 277 281 287 266 237 231 236 226 221 218 208 204 203 219 230 230 221 211 200 203 203 194 188 187 170 135 90
307 302 301 300 301 303 300 293 288 284 280 276 266 261 262 269 274 277 281 244 232 245 240 231 216 208 204 203 187 196 233 234 184 168 169 179 177 172 159 140 141 136 163
297 295 297 298 298 295 292 292 290 283 279 285 282 267 259 265 270 268 269 228 223 236 242 230 219 207 206 205 190 187 207 204 142 117 114 111 137 149 156 171 171 167 159
296 299 300 301 298 292 293 295 298 299 299 295 296 290 277 268 267 261 263 243 219 216 229 236 229 219 217 224 222 191 193 171 145 136 123 108 94 90 86 82 112 161 166
299 300 301 302 299 303 301 300 301 299 298 294 302 307 299 290 278 264 264 273 268 206 217 234 222 217 223 228 202 166 154 145 141 131 120 110 101 86 73 67 64 61 66
307 303 299 302 299 297 294 295 301 300 287 298 312 311 316 321 311 291 295 297 302 276 215 224 227 185 196 173 144 138 140 140 134 130 125 111 99 107 102 86 72 70 60
306 303 301 300 302 318 324 313 307 291 283 292 293 291 303 313 322 324 320 322 286 299 189 173 162 133 117 102 95 111 125 136 131 128 124 113 103 98 91 90 91 83 74
308 305 306 304 300 322 331 318 297 284 264 268 265 258 265 287 291 298 296 270 223 188 53 113 125 125 116 102 97 100 104 113 110 115 119 115 108 101 92 82 90 87 94
314 315 311 311 315 321 338 343 340 323 320 315 306 291 288 278 296 300 302 303 308 299 79 112 120 123 124 120 119 110 101 110 116 119 119 119 118 114 103 89 92 101 105
298 304 305 309 317 327 335 353 347 352 357 357 357 354 345 331 330 345 353 15 32 49 75 87 90 93 99 107 112 116 113 112 115 117 117 119 119 116 112 109 103 103 102
302 298 303 299 306 322 332 332 332 332 336 343 353 0 0 360 8 16 32 61 58 55 81 91 90 89 95 102 106 109 111 110 108 111 113 115 119 117 114 114 117 120 117
311 311 313 318 327 340 350 356 352 341 333 333 346 354 359 17 29 31 36 62 84 77 78 83 89 95 96 95 99 103 108 112 112 111 111 113 116 116 116 119 118 117 110
310 313 322 332 348 354 358 6 360 350 351 0 356 348 354 19 39 29 35 46 70 77 78 83 85 87 90 93 96 104 107 109 114 111 112 111 111 116 121 124 124 121 111
318 323 337 354 5 8 14 10 6 2 1 358 352 349 353 28 45 36 31 33 47 74 80 79 80 84 87 92 99 108 111 110 108 110 111 113 116 116 115 118 119 118 116
341 351 3 12 15 17 14 18 15 17 13 2 352 359 6 28 37 30 27 28 35 65 85 93 88 81 88 101 112 116 115 115 116 116 116 116 117 117 117 118 118 116 116
13 15 18 24 26 3 3 19 31 30 17 5 359 9 16 24 29 29 29 30 58 64 70 87 93 84 74 73 84 113 125 130 132 134 126 120 117 117 117 118 121 122 121
23 25 25 26 23 30 33 28 27 25 18 12 10 13 14 21 30 28 26 35 57 58 61 71 84 91 84 74 78 90 103 114 116 119 126 126 120 116 115 116 117 122 121
23 26 27 33 32 39 37 32 28 24 17 12 11 12 17 22 29 28 29 49 58 62 61 65 76 81 89 94 102 109 116 114 113 113 116 117 117 115 117 117 117 116 115
20 24 27 36 40 40 40 35 25 17 12 6 7 11 17 22 24 28 45 61 69 68 64 65 74 81 86 96 109 118 118 116 116 115 114 117 117 118 116 113 113 112 114